Location: Arcones
(41.1182°N, 3.7238°W)
Time: 22:58:30
(UTC+00:00)

Cosmos 2058 Rocket - Visible Passes

Search period start: 14 March 2026 00:00
Search period end: 24 March 2026 00:00
Orbit: 605 x 631 km, 82.5° (Epoch: 14 March)

Date Brightness Start Highest point End Pass type
(mag) Time Alt. Az. Time Alt. Az. Time Alt. Az.
15 Mar 6.5 05:22:02 10° ESE 05:24:20 14° E 05:26:38 10° NE visible
15 Mar 6.5 18:44:46 10° NW 18:47:42 17° W 18:50:36 10° SW visible
16 Mar 5.7 05:37:28 10° SE 05:41:05 25° E 05:44:44 10° NNE visible
17 Mar 4.4 05:53:43 10° SSE 05:57:56 47° E 06:02:13 10° NNE visible
19 Mar 6.3 04:52:10 10° ESE 04:54:34 14° E 04:56:58 10° NE visible
20 Mar 5.5 05:07:39 10° SE 05:11:20 26° E 05:15:02 10° NNE visible
21 Mar 4.2 05:23:56 10° SSE 05:28:11 48° E 05:32:29 10° NNE visible
22 Mar 3.1 05:40:42 10° S 05:45:07 89° W 05:49:38 10° N visible
23 Mar 6.2 04:22:18 10° ESE 04:24:48 15° E 04:27:16 10° NE visible
